Location: Il Ritiro
(43.4167°N, 13.1333°E)
Time: 07:17:14
(UTC+00:00)

Cosmos 1315 Rocket - Pass Details

Date: 05 July 2020
Orbit: 530 x 568 km, 81.2° (Epoch: 05 August)

Event Time Altitude Azimuth Distance (km) Brightness Sun altitude
Rises 20:45:58 0° 352° (N) 2,753 7.6 -15.9°
Reaches altitude 10° 20:48:09 10° 356° (N) 1,858 6.4 -16.1°
Maximum altitude 20:52:14 65° 79° (ENE) 622 2.9 -16.5°
Enters shadow 20:53:52 34° 149° (SSE) 937 3.4 -16.7°
